Wetterdaten: Sonntag, 05.02.2017
Datum Zeit Temp. I. Temp. A. Boden 5 cm Feuchte A. Sonne Luftdruck Regen Wind Sonnenschein
05.02.2017 00:00 22,0 C 1,2 C 1,0 C 92 % 0 % 1008 hPa 0,0 l/m 0,0 km/h (0 Bft) 0 min
05.02.2017 00:03 22,0 C 1,2 C 1,0 C 92 % 0 % 1008 hPa 0,0 l/m 0,0 km/h (0 Bft) 0 min
05.02.2017 00:06 22,0 C 1,2 C 1,0 C 92 % 0 % 1008 hPa 0,0 l/m 0,0 km/h (0 Bft) 0 min
05.02.2017 00:09 22,0 C 1,2 C 1,0 C 92 % 0 % 1008 hPa 0,0 l/m 1,9 km/h (1 Bft) 0 min
05.02.2017 00:12 22,0 C 1,2 C 1,0 C 92 % 0 % 1008 hPa 0,0 l/m 0,0 km/h (0 Bft) 0 min
05.02.2017 00:15 22,0 C 1,1 C 1,0 C 92 % 0 % 1008 hPa 0,0 l/m 0,0 km/h (0 Bft) 0 min
05.02.2017 00:18 22,0 C 1,2 C 1,0 C 92 % 0 % 1008 hPa 0,0 l/m 0,0 km/h (0 Bft) 0 min
05.02.2017 00:21 22,0 C 1,1 C 1,0 C 92 % 0 % 1008 hPa 0,0 l/m 0,0 km/h (0 Bft) 0 min
05.02.2017 00:24 22,0 C 1,1 C 1,0 C 92 % 0 % 1008 hPa 0,0 l/m 0,0 km/h (0 Bft) 0 min
05.02.2017 00:27 22,0 C 1,1 C 1,0 C 92 % 0 % 1008 hPa 0,0 l/m 0,0 km/h (0 Bft) 0 min
05.02.2017 00:30 22,0 C 1,2 C 1,0 C 92 % 0 % 1008 hPa 0,0 l/m 0,0 km/h (0 Bft) 0 min
05.02.2017 00:33 22,0 C 1,2 C 1,0 C 92 % 0 % 1008 hPa 0,0 l/m 0,0 km/h (0 Bft) 0 min
05.02.2017 00:36 22,0 C 1,1 C 1,0 C 92 % 0 % 1008 hPa 0,0 l/m 0,0 km/h (0 Bft) 0 min
05.02.2017 00:39 22,0 C 1,1 C 1,0 C 92 % 0 % 1008 hPa 0,0 l/m 0,0 km/h (0 Bft) 0 min
05.02.2017 00:42 22,0 C 1,1 C 1,0 C 92 % 0 % 1008 hPa 0,0 l/m 0,1 km/h (0 Bft) 0 min
05.02.2017 00:45 22,0 C 1,1 C 1,0 C 92 % 0 % 1008 hPa 0,0 l/m 0,0 km/h (0 Bft) 0 min
05.02.2017 00:51 22,0 C 1,1 C 1,0 C 92 % 0 % 1008 hPa 0,0 l/m 0,0 km/h (0 Bft) 0 min
05.02.2017 00:54 22,0 C 1,0 C 1,0 C 92 % 0 % 1008 hPa 0,0 l/m 0,0 km/h (0 Bft) 0 min
05.02.2017 00:57 22,0 C 1,1 C 0,9 C 93 % 0 % 1008 hPa 0,0 l/m 0,0 km/h (0 Bft) 0 min
05.02.2017 01:00 22,0 C 1,1 C 0,9 C 92 % 0 % 1008 hPa 0,0 l/m 0,4 km/h (0 Bft) 0 min
05.02.2017 01:03 22,0 C 1,1 C 1,0 C 93 % 0 % 1008 hPa 0,0 l/m 0,0 km/h (0 Bft) 0 min
05.02.2017 01:06 22,0 C 1,1 C 1,0 C 93 % 0 % 1008 hPa 0,0 l/m 0,0 km/h (0 Bft) 0 min
05.02.2017 01:09 22,0 C 1,1 C 0,9 C 93 % 0 % 1008 hPa 0,0 l/m 0,0 km/h (0 Bft) 0 min
05.02.2017 01:12 22,0 C 1,1 C 0,9 C 93 % 0 % 1008 hPa 0,0 l/m 0,0 km/h (0 Bft) 0 min
05.02.2017 01:15 22,0 C 1,2 C 0,9 C 93 % 0 % 1008 hPa 0,0 l/m 0,0 km/h (0 Bft) 0 min
05.02.2017 01:18 22,0 C 1,1 C 0,9 C 93 % 0 % 1008 hPa 0,0 l/m 0,0 km/h (0 Bft) 0 min
05.02.2017 01:21 22,0 C 1,1 C 0,9 C 93 % 0 % 1008 hPa 0,0 l/m 0,0 km/h (0 Bft) 0 min
05.02.2017 01:24 22,0 C 1,1 C 0,9 C 93 % 0 % 1008 hPa 0,0 l/m 0,0 km/h (0 Bft) 0 min
05.02.2017 01:27 22,0 C 1,0 C 0,8 C 93 % 0 % 1008 hPa 0,0 l/m 0,0 km/h (0 Bft) 0 min
05.02.2017 01:30 22,0 C 1,0 C 0,8 C 93 % 0 % 1008 hPa 0,0 l/m 0,0 km/h (0 Bft) 0 min
05.02.2017 01:33 22,0 C 1,1 C 0,9 C 93 % 0 % 1008 hPa 0,0 l/m 0,0 km/h (0 Bft) 0 min
05.02.2017 01:36 22,0 C 1,1 C 0,8 C 93 % 0 % 1008 hPa 0,0 l/m 0,0 km/h (0 Bft) 0 min
05.02.2017 01:39 22,0 C 1,1 C 0,9 C 93 % 0 % 1008 hPa 0,0 l/m 0,0 km/h (0 Bft) 0 min
05.02.2017 01:42 22,0 C 1,1 C 0,8 C 93 % 0 % 1008 hPa 0,0 l/m 0,0 km/h (0 Bft) 0 min
05.02.2017 01:45 22,0 C 1,1 C 0,8 C 93 % 0 % 1008 hPa 0,0 l/m 0,0 km/h (0 Bft) 0 min
05.02.2017 01:48 22,0 C 1,1 C 0,8 C 93 % 0 % 1008 hPa 0,0 l/m 0,0 km/h (0 Bft) 0 min
05.02.2017 01:51 22,0 C 1,1 C 0,8 C 93 % 0 % 1008 hPa 0,0 l/m 0,0 km/h (0 Bft) 0 min
05.02.2017 01:54 22,0 C 1,1 C 0,8 C 93 % 0 % 1008 hPa 0,0 l/m 0,0 km/h (0 Bft) 0 min
05.02.2017 01:57 22,0 C 1,1 C 0,8 C 93 % 0 % 1008 hPa 0,0 l/m 0,0 km/h (0 Bft) 0 min
05.02.2017 02:00 22,0 C 1,1 C 0,8 C 93 % 0 % 1008 hPa 0,0 l/m 0,0 km/h (0 Bft) 0 min
05.02.2017 02:03 22,0 C 1,1 C 0,8 C 93 % 0 % 1008 hPa 0,0 l/m 0,0 km/h (0 Bft) 0 min
05.02.2017 02:06 22,0 C 1,0 C 0,8 C 93 % 0 % 1008 hPa 0,0 l/m 0,0 km/h (0 Bft) 0 min
05.02.2017 02:09 22,0 C 1,0 C 0,8 C 93 % 0 % 1008 hPa 0,0 l/m 0,0 km/h (0 Bft) 0 min
05.02.2017 02:12 22,0 C 1,0 C 0,8 C 93 % 0 % 1008 hPa 0,0 l/m 0,0 km/h (0 Bft) 0 min
05.02.2017 02:15 22,0 C 1,1 C 0,8 C 93 % 0 % 1008 hPa 0,0 l/m 0,0 km/h (0 Bft) 0 min
05.02.2017 02:18 22,0 C 1,1 C 0,8 C 93 % 0 % 1008 hPa 0,0 l/m 0,0 km/h (0 Bft) 0 min
05.02.2017 02:21 22,0 C 1,0 C 0,8 C 93 % 0 % 1008 hPa 0,0 l/m 0,0 km/h (0 Bft) 0 min
05.02.2017 02:24 22,0 C 1,0 C 0,8 C 93 % 0 % 1008 hPa 0,0 l/m 0,0 km/h (0 Bft) 0 min
05.02.2017 02:27 22,0 C 1,0 C 0,9 C 93 % 0 % 1008 hPa 0,0 l/m 0,0 km/h (0 Bft) 0 min
05.02.2017 02:30 22,0 C 1,0 C 0,8 C 93 % 0 % 1008 hPa 0,0 l/m 0,0 km/h (0 Bft) 0 min
05.02.2017 02:33 22,0 C 1,0 C 0,8 C 93 % 0 % 1008 hPa 0,0 l/m 0,0 km/h (0 Bft) 0 min
05.02.2017 02:36 22,0 C 1,0 C 0,8 C 93 % 0 % 1008 hPa 0,0 l/m 0,0 km/h (0 Bft) 0 min
05.02.2017 02:39 22,0 C 1,0 C 0,8 C 93 % 0 % 1008 hPa 0,0 l/m 0,0 km/h (0 Bft) 0 min
05.02.2017 02:42 22,0 C 1,0 C 0,8 C 93 % 0 % 1008 hPa 0,0 l/m 0,0 km/h (0 Bft) 0 min
05.02.2017 02:45 22,0 C 0,9 C 0,8 C 93 % 0 % 1008 hPa 0,0 l/m 0,0 km/h (0 Bft) 0 min
05.02.2017 02:48 22,0 C 0,9 C 0,8 C 93 % 0 % 1008 hPa 0,0 l/m 0,0 km/h (0 Bft) 0 min
05.02.2017 02:51 22,0 C 1,1 C 0,8 C 93 % 0 % 1008 hPa 0,0 l/m 0,0 km/h (0 Bft) 0 min
05.02.2017 02:54 22,0 C 1,0 C 0,8 C 93 % 0 % 1008 hPa 0,0 l/m 0,0 km/h (0 Bft) 0 min
05.02.2017 02:57 22,0 C 1,0 C 0,8 C 93 % 0 % 1008 hPa 0,0 l/m 0,0 km/h (0 Bft) 0 min
05.02.2017 03:00 22,0 C 0,9 C 0,8 C 93 % 0 % 1008 hPa 0,0 l/m 0,0 km/h (0 Bft) 0 min
05.02.2017 03:03 22,0 C 0,9 C 0,8 C 93 % 0 % 1008 hPa 0,0 l/m 0,0 km/h (0 Bft) 0 min
05.02.2017 03:06 22,0 C 0,9 C 0,8 C 93 % 0 % 1008 hPa 0,0 l/m 0,0 km/h (0 Bft) 0 min
05.02.2017 03:09 22,0 C 0,9 C 0,7 C 93 % 0 % 1008 hPa 0,0 l/m 0,0 km/h (0 Bft) 0 min
05.02.2017 03:12 22,0 C 0,8 C 0,8 C 93 % 0 % 1008 hPa 0,0 l/m 0,0 km/h (0 Bft) 0 min
05.02.2017 03:15 22,0 C 0,9 C 0,8 C 93 % 0 % 1008 hPa 0,0 l/m 0,0 km/h (0 Bft) 0 min
05.02.2017 03:18 22,0 C 0,9 C 0,7 C 93 % 0 % 1008 hPa 0,0 l/m 0,0 km/h (0 Bft) 0 min
05.02.2017 03:21 22,0 C 0,9 C 0,7 C 93 % 0 % 1008 hPa 0,0 l/m 0,0 km/h (0 Bft) 0 min
05.02.2017 03:24 22,0 C 0,9 C 0,8 C 93 % 0 % 1008 hPa 0,0 l/m 0,0 km/h (0 Bft) 0 min
05.02.2017 03:27 22,0 C 0,9 C 0,7 C 93 % 0 % 1008 hPa 0,0 l/m 0,0 km/h (0 Bft) 0 min
05.02.2017 03:30 22,0 C 1,1 C 0,8 C 93 % 0 % 1009 hPa 0,0 l/m 0,0 km/h (0 Bft) 0 min
05.02.2017 03:33 22,0 C 1,0 C 0,7 C 93 % 0 % 1009 hPa 0,0 l/m 0,0 km/h (0 Bft) 0 min
05.02.2017 03:36 22,0 C 1,0 C 0,7 C 93 % 0 % 1009 hPa 0,0 l/m 0,0 km/h (0 Bft) 0 min
05.02.2017 03:39 22,0 C 1,0 C 0,7 C 93 % 0 % 1009 hPa 0,0 l/m 0,0 km/h (0 Bft) 0 min
05.02.2017 03:42 22,0 C 0,9 C 0,7 C 93 % 0 % 1009 hPa 0,0 l/m 0,0 km/h (0 Bft) 0 min
05.02.2017 03:45 22,0 C 0,9 C 0,7 C 93 % 0 % 1009 hPa 0,0 l/m 0,0 km/h (0 Bft) 0 min
05.02.2017 03:48 21,9 C 1,0 C 0,7 C 93 % 0 % 1009 hPa 0,0 l/m 0,0 km/h (0 Bft) 0 min
05.02.2017 03:51 22,0 C 1,0 C 0,7 C 93 % 0 % 1009 hPa 0,0 l/m 0,0 km/h (0 Bft) 0 min
05.02.2017 03:54 22,0 C 1,0 C 0,7 C 93 % 0 % 1009 hPa 0,0 l/m 0,0 km/h (0 Bft) 0 min
05.02.2017 03:57 22,0 C 1,0 C 0,7 C 93 % 0 % 1009 hPa 0,0 l/m 0,0 km/h (0 Bft) 0 min
05.02.2017 04:00 22,0 C 1,0 C 0,7 C 93 % 0 % 1009 hPa 0,0 l/m 0,0 km/h (0 Bft) 0 min
05.02.2017 04:03 22,0 C 1,0 C 0,7 C 93 % 0 % 1009 hPa 0,0 l/m 0,0 km/h (0 Bft) 0 min
05.02.2017 04:06 22,0 C 1,0 C 0,7 C 93 % 0 % 1009 hPa 0,0 l/m 0,0 km/h (0 Bft) 0 min
05.02.2017 04:09 21,9 C 1,0 C 0,7 C 93 % 0 % 1009 hPa 0,0 l/m 0,0 km/h (0 Bft) 0 min
05.02.2017 04:12 22,0 C 1,0 C 0,7 C 93 % 0 % 1009 hPa 0,0 l/m 0,0 km/h (0 Bft) 0 min
05.02.2017 04:15 22,0 C 1,0 C 0,7 C 93 % 0 % 1009 hPa 0,0 l/m 0,0 km/h (0 Bft) 0 min
05.02.2017 04:18 22,0 C 1,1 C 0,7 C 93 % 0 % 1009 hPa 0,0 l/m 0,0 km/h (0 Bft) 0 min
05.02.2017 04:21 22,0 C 1,0 C 0,7 C 93 % 0 % 1009 hPa 0,0 l/m 0,0 km/h (0 Bft) 0 min
05.02.2017 04:24 21,9 C 1,0 C 0,7 C 93 % 0 % 1009 hPa 0,0 l/m 0,0 km/h (0 Bft) 0 min
05.02.2017 04:27 21,9 C 0,9 C 0,7 C 93 % 0 % 1009 hPa 0,0 l/m 0,0 km/h (0 Bft) 0 min
05.02.2017 04:30 22,0 C 0,9 C 0,7 C 93 % 0 % 1009 hPa 0,0 l/m 0,0 km/h (0 Bft) 0 min
05.02.2017 04:33 22,0 C 0,9 C 0,7 C 93 % 0 % 1009 hPa 0,0 l/m 0,0 km/h (0 Bft) 0 min
05.02.2017 04:36 21,9 C 0,8 C 0,7 C 93 % 0 % 1009 hPa 0,0 l/m 0,0 km/h (0 Bft) 0 min
05.02.2017 04:39 21,9 C 0,9 C 0,7 C 93 % 0 % 1009 hPa 0,0 l/m 0,0 km/h (0 Bft) 0 min
05.02.2017 04:42 22,0 C 0,9 C 0,7 C 93 % 0 % 1009 hPa 0,0 l/m 0,0 km/h (0 Bft) 0 min
05.02.2017 04:45 21,9 C 0,8 C 0,7 C 93 % 0 % 1009 hPa 0,0 l/m 0,0 km/h (0 Bft) 0 min
05.02.2017 04:48 21,9 C 0,9 C 0,7 C 93 % 0 % 1009 hPa 0,0 l/m 0,0 km/h (0 Bft) 0 min
05.02.2017 04:51 21,9 C 0,9 C 0,7 C 93 % 0 % 1009 hPa 0,0 l/m 0,0 km/h (0 Bft) 0 min
05.02.2017 04:54 21,9 C 1,0 C 0,7 C 93 % 0 % 1009 hPa 0,0 l/m 0,0 km/h (0 Bft) 0 min
05.02.2017 04:57 21,9 C 1,0 C 0,7 C 93 % 0 % 1009 hPa 0,0 l/m 0,0 km/h (0 Bft) 0 min
05.02.2017 05:00 21,9 C 1,0 C 0,7 C 93 % 0 % 1009 hPa 0,0 l/m 0,0 km/h (0 Bft) 0 min
05.02.2017 05:03 21,9 C 1,0 C 0,7 C 93 % 0 % 1009 hPa 0,0 l/m 0,0 km/h (0 Bft) 0 min
05.02.2017 05:06 21,9 C 0,9 C 0,7 C 93 % 0 % 1009 hPa 0,0 l/m 0,0 km/h (0 Bft) 0 min
05.02.2017 05:09 21,9 C 0,9 C 0,7 C 93 % 0 % 1009 hPa 0,0 l/m 0,0 km/h (0 Bft) 0 min
05.02.2017 05:12 21,9 C 0,9 C 0,7 C 93 % 0 % 1009 hPa 0,0 l/m 0,0 km/h (0 Bft) 0 min
05.02.2017 05:15 21,9 C 0,8 C 0,7 C 93 % 0 % 1009 hPa 0,0 l/m 0,0 km/h (0 Bft) 0 min
05.02.2017 05:18 21,9 C 0,8 C 0,7 C 93 % 0 % 1009 hPa 0,0 l/m 0,0 km/h (0 Bft) 0 min
05.02.2017 05:21 21,9 C 0,8 C 0,7 C 93 % 0 % 1009 hPa 0,0 l/m 0,0 km/h (0 Bft) 0 min
05.02.2017 05:24 21,9 C 0,8 C 0,7 C 93 % 0 % 1009 hPa 0,0 l/m 0,0 km/h (0 Bft) 0 min
05.02.2017 05:27 21,9 C 0,8 C 0,7 C 93 % 0 % 1009 hPa 0,0 l/m 0,0 km/h (0 Bft) 0 min
05.02.2017 05:30 21,9 C 0,8 C 0,7 C 93 % 0 % 1009 hPa 0,0 l/m 0,0 km/h (0 Bft) 0 min
05.02.2017 05:33 21,9 C 0,8 C 0,7 C 93 % 0 % 1009 hPa 0,0 l/m 0,0 km/h (0 Bft) 0 min
05.02.2017 05:36 21,9 C 0,8 C 0,7 C 93 % 0 % 1009 hPa 0,0 l/m 0,0 km/h (0 Bft) 0 min
05.02.2017 05:39 21,9 C 0,8 C 0,7 C 93 % 0 % 1009 hPa 0,0 l/m 0,0 km/h (0 Bft) 0 min
05.02.2017 05:42 21,9 C 0,7 C 0,6 C 93 % 0 % 1009 hPa 0,0 l/m 0,0 km/h (0 Bft) 0 min
05.02.2017 05:45 21,9 C 0,7 C 0,7 C 93 % 0 % 1009 hPa 0,0 l/m 0,0 km/h (0 Bft) 0 min
05.02.2017 05:48 21,9 C 0,7 C 0,7 C 93 % 0 % 1009 hPa 0,0 l/m 0,0 km/h (0 Bft) 0 min
05.02.2017 05:51 21,9 C 0,7 C 0,6 C 93 % 0 % 1009 hPa 0,0 l/m 0,0 km/h (0 Bft) 0 min
05.02.2017 05:54 21,9 C 0,8 C 0,7 C 93 % 0 % 1009 hPa 0,0 l/m 0,0 km/h (0 Bft) 0 min
05.02.2017 05:57 21,9 C 0,9 C 0,7 C 93 % 0 % 1009 hPa 0,0 l/m 0,0 km/h (0 Bft) 0 min
05.02.2017 06:00 21,9 C 0,8 C 0,6 C 93 % 0 % 1009 hPa 0,0 l/m 0,0 km/h (0 Bft) 0 min
05.02.2017 06:03 21,9 C 0,8 C 0,6 C 93 % 0 % 1009 hPa 0,0 l/m 0,0 km/h (0 Bft) 0 min
05.02.2017 06:06 21,9 C 0,7 C 0,6 C 93 % 0 % 1009 hPa 0,0 l/m 0,0 km/h (0 Bft) 0 min
05.02.2017 06:09 21,9 C 0,7 C 0,6 C 93 % 0 % 1009 hPa 0,0 l/m 0,0 km/h (0 Bft) 0 min
05.02.2017 06:12 21,9 C 0,7 C 0,6 C 93 % 0 % 1009 hPa 0,0 l/m 0,0 km/h (0 Bft) 0 min
05.02.2017 06:15 21,9 C 0,6 C 0,6 C 93 % 0 % 1009 hPa 0,0 l/m 0,0 km/h (0 Bft) 0 min
05.02.2017 06:18 21,9 C 0,6 C 0,5 C 93 % 0 % 1009 hPa 0,0 l/m 0,0 km/h (0 Bft) 0 min
05.02.2017 06:21 21,9 C 0,5 C 0,5 C 93 % 0 % 1009 hPa 0,0 l/m 0,0 km/h (0 Bft) 0 min
05.02.2017 06:24 21,9 C 0,4 C 0,5 C 93 % 0 % 1009 hPa 0,0 l/m 0,0 km/h (0 Bft) 0 min
05.02.2017 06:27 21,9 C 0,3 C 0,5 C 93 % 0 % 1009 hPa 0,0 l/m 0,0 km/h (0 Bft) 0 min
05.02.2017 06:30 21,9 C 0,4 C 0,4 C 93 % 0 % 1009 hPa 0,0 l/m 0,7 km/h (0 Bft) 0 min
05.02.2017 06:33 21,9 C 0,3 C 0,4 C 93 % 0 % 1009 hPa 0,0 l/m 0,0 km/h (0 Bft) 0 min
05.02.2017 06:36 21,9 C 0,3 C 0,4 C 93 % 0 % 1009 hPa 0,0 l/m 0,0 km/h (0 Bft) 0 min
05.02.2017 06:39 21,9 C 0,3 C 0,4 C 93 % 0 % 1009 hPa 0,0 l/m 0,4 km/h (0 Bft) 0 min
05.02.2017 06:42 21,9 C 0,4 C 0,4 C 93 % 0 % 1009 hPa 0,0 l/m 0,0 km/h (0 Bft) 0 min
05.02.2017 06:45 21,9 C 0,4 C 0,3 C 93 % 0 % 1009 hPa 0,0 l/m 0,0 km/h (0 Bft) 0 min
05.02.2017 06:48 21,9 C 0,4 C 0,3 C 93 % 0 % 1009 hPa 0,0 l/m 0,0 km/h (0 Bft) 0 min
05.02.2017 06:51 21,9 C 0,4 C 0,3 C 93 % 0 % 1009 hPa 0,0 l/m 0,0 km/h (0 Bft) 0 min
05.02.2017 06:54 21,9 C 0,4 C 0,2 C 93 % 0 % 1009 hPa 0,0 l/m 0,0 km/h (0 Bft) 0 min
05.02.2017 06:57 21,9 C 0,1 C 0,1 C 93 % 0 % 1009 hPa 0,0 l/m 0,0 km/h (0 Bft) 0 min
05.02.2017 07:00 21,9 C -0,2 C 0,0 C 93 % 0 % 1009 hPa 0,0 l/m 0,1 km/h (0 Bft) 0 min
05.02.2017 07:03 21,9 C -0,2 C -0,1 C 93 % 0 % 1009 hPa 0,0 l/m 0,0 km/h (0 Bft) 0 min
05.02.2017 07:06 21,9 C -0,5 C 0,1 C 93 % 0 % 1009 hPa 0,0 l/m 0,0 km/h (0 Bft) 0 min
05.02.2017 07:09 21,9 C -0,6 C 0,0 C 93 % 0 % 1009 hPa 0,0 l/m 0,3 km/h (0 Bft) 0 min
05.02.2017 07:12 21,9 C -0,6 C 0,0 C 93 % 0 % 1009 hPa 0,0 l/m 0,0 km/h (0 Bft) 0 min
05.02.2017 07:15 21,9 C -0,6 C 0,1 C 93 % 0 % 1009 hPa 0,0 l/m 0,0 km/h (0 Bft) 0 min
05.02.2017 07:18 21,9 C -0,6 C 0,0 C 93 % 0 % 1009 hPa 0,0 l/m 0,0 km/h (0 Bft) 0 min
05.02.2017 07:21 21,9 C -0,6 C 0,1 C 93 % 1 % 1009 hPa 0,0 l/m 0,0 km/h (0 Bft) 0 min
05.02.2017 07:24 21,9 C -0,7 C 0,1 C 93 % 1 % 1009 hPa 0,0 l/m 0,0 km/h (0 Bft) 0 min
05.02.2017 07:27 21,9 C -0,8 C 0,0 C 93 % 1 % 1009 hPa 0,0 l/m 0,0 km/h (0 Bft) 0 min
05.02.2017 07:30 21,9 C -0,9 C 0,1 C 93 % 1 % 1009 hPa 0,0 l/m 0,0 km/h (0 Bft) 0 min
05.02.2017 07:33 21,9 C -0,9 C 0,1 C 93 % 2 % 1009 hPa 0,0 l/m 0,0 km/h (0 Bft) 0 min
05.02.2017 07:36 21,9 C -1,0 C -0,1 C 93 % 3 % 1009 hPa 0,0 l/m 0,0 km/h (0 Bft) 0 min
05.02.2017 07:39 21,9 C -1,2 C 0,0 C 93 % 3 % 1009 hPa 0,0 l/m 0,0 km/h (0 Bft) 0 min
05.02.2017 07:42 21,9 C -1,2 C 0,0 C 93 % 4 % 1009 hPa 0,0 l/m 0,0 km/h (0 Bft) 0 min
05.02.2017 07:45 21,9 C -1,2 C 0,0 C 93 % 5 % 1009 hPa 0,0 l/m 0,0 km/h (0 Bft) 0 min
05.02.2017 07:48 21,9 C -1,0 C -0,1 C 93 % 6 % 1009 hPa 0,0 l/m 0,0 km/h (0 Bft) 0 min
05.02.2017 07:51 21,8 C -1,0 C -0,1 C 93 % 11 % 1009 hPa 0,0 l/m 0,0 km/h (0 Bft) 3 min
05.02.2017 07:54 21,9 C -1,0 C -0,3 C 93 % 11 % 1009 hPa 0,0 l/m 0,0 km/h (0 Bft) 0 min
05.02.2017 07:57 21,9 C -1,0 C -0,3 C 93 % 15 % 1009 hPa 0,0 l/m 0,0 km/h (0 Bft) 3 min
05.02.2017 08:00 21,8 C -1,2 C -0,4 C 93 % 17 % 1009 hPa 0,0 l/m 0,0 km/h (0 Bft) 3 min
05.02.2017 08:03 21,8 C -1,2 C -0,3 C 93 % 18 % 1009 hPa 0,0 l/m 0,0 km/h (0 Bft) 3 min
05.02.2017 08:06 21,9 C -1,2 C -0,2 C 93 % 20 % 1009 hPa 0,0 l/m 0,0 km/h (0 Bft) 3 min
05.02.2017 08:09 21,9 C -1,2 C -0,3 C 93 % 21 % 1009 hPa 0,0 l/m 0,4 km/h (0 Bft) 3 min
05.02.2017 08:12 21,9 C -1,2 C -0,4 C 93 % 22 % 1009 hPa 0,0 l/m 0,0 km/h (0 Bft) 3 min
05.02.2017 08:15 21,9 C -1,2 C -0,4 C 93 % 23 % 1009 hPa 0,0 l/m 1,5 km/h (1 Bft) 0 min
05.02.2017 08:18 21,9 C -1,0 C -0,3 C 93 % 24 % 1009 hPa 0,0 l/m 1,5 km/h (1 Bft) 0 min
05.02.2017 08:21 21,9 C -1,0 C -0,2 C 93 % 26 % 1009 hPa 0,0 l/m 0,0 km/h (0 Bft) 0 min
05.02.2017 08:24 21,9 C -0,9 C -0,2 C 93 % 28 % 1009 hPa 0,0 l/m 0,1 km/h (0 Bft) 0 min
05.02.2017 08:27 21,9 C -0,8 C -0,3 C 94 % 29 % 1009 hPa 0,0 l/m 0,0 km/h (0 Bft) 0 min
05.02.2017 08:30 21,9 C -0,6 C -0,3 C 94 % 31 % 1009 hPa 0,0 l/m 0,0 km/h (0 Bft) 0 min
05.02.2017 08:33 22,0 C -0,6 C -0,3 C 94 % 31 % 1009 hPa 0,0 l/m 0,0 km/h (0 Bft) 0 min
05.02.2017 08:36 21,9 C -0,6 C -0,2 C 94 % 33 % 1009 hPa 0,0 l/m 0,0 km/h (0 Bft) 0 min
05.02.2017 08:39 21,9 C -0,5 C -0,2 C 94 % 34 % 1009 hPa 0,0 l/m 0,0 km/h (0 Bft) 0 min
05.02.2017 08:42 21,9 C -0,6 C -0,2 C 94 % 36 % 1009 hPa 0,0 l/m 0,0 km/h (0 Bft) 0 min
05.02.2017 08:45 22,0 C -0,4 C -0,2 C 94 % 36 % 1009 hPa 0,0 l/m 0,0 km/h (0 Bft) 0 min
05.02.2017 08:48 21,9 C -0,4 C -0,1 C 94 % 36 % 1009 hPa 0,0 l/m 0,1 km/h (0 Bft) 0 min
05.02.2017 08:51 21,9 C -0,3 C -0,1 C 94 % 37 % 1009 hPa 0,0 l/m 0,4 km/h (0 Bft) 0 min
05.02.2017 08:54 22,0 C -0,3 C -0,1 C 94 % 38 % 1009 hPa 0,0 l/m 0,0 km/h (0 Bft) 0 min
05.02.2017 08:57 22,0 C -0,3 C -0,1 C 94 % 39 % 1009 hPa 0,0 l/m 0,0 km/h (0 Bft) 0 min
05.02.2017 09:00 22,0 C -0,2 C -0,1 C 94 % 41 % 1009 hPa 0,0 l/m 0,0 km/h (0 Bft) 0 min
05.02.2017 09:03 22,0 C -0,2 C -0,1 C 94 % 42 % 1009 hPa 0,0 l/m 0,0 km/h (0 Bft) 0 min
05.02.2017 09:06 22,0 C 0,0 C 0,0 C 94 % 42 % 1009 hPa 0,0 l/m 0,0 km/h (0 Bft) 0 min
05.02.2017 09:09 22,0 C 0,0 C -0,1 C 94 % 44 % 1009 hPa 0,0 l/m 0,0 km/h (0 Bft) 0 min
05.02.2017 09:12 22,0 C 0,0 C 0,0 C 94 % 44 % 1009 hPa 0,0 l/m 0,1 km/h (0 Bft) 0 min
05.02.2017 09:15 22,1 C 0,3 C 0,0 C 93 % 50 % 1009 hPa 0,0 l/m 0,4 km/h (0 Bft) 0 min
05.02.2017 09:18 22,1 C 0,4 C 0,0 C 93 % 51 % 1009 hPa 0,0 l/m 3,4 km/h (1 Bft) 0 min
05.02.2017 09:21 22,1 C 0,6 C 0,1 C 94 % 53 % 1009 hPa 0,0 l/m 2,4 km/h (1 Bft) 3 min
05.02.2017 09:24 22,1 C 0,7 C 0,0 C 94 % 57 % 1009 hPa 0,0 l/m 0,0 km/h (0 Bft) 3 min
05.02.2017 09:27 22,1 C 0,7 C 0,0 C 94 % 60 % 1009 hPa 0,0 l/m 0,1 km/h (0 Bft) 3 min
05.02.2017 09:30 22,1 C 0,7 C 0,1 C 93 % 60 % 1009 hPa 0,0 l/m 0,8 km/h (0 Bft) 3 min
05.02.2017 09:33 22,1 C 0,9 C 0,1 C 93 % 62 % 1009 hPa 0,0 l/m 0,3 km/h (0 Bft) 3 min
05.02.2017 09:36 22,1 C 1,0 C 0,1 C 92 % 66 % 1009 hPa 0,0 l/m 0,3 km/h (0 Bft) 3 min
05.02.2017 09:39 22,2 C 1,2 C 0,1 C 90 % 68 % 1009 hPa 0,0 l/m 3,4 km/h (1 Bft) 3 min
05.02.2017 09:42 22,2 C 1,3 C 0,3 C 91 % 70 % 1009 hPa 0,0 l/m 4,6 km/h (1 Bft) 3 min
05.02.2017 09:45 22,3 C 1,5 C 0,2 C 91 % 73 % 1009 hPa 0,0 l/m 3,9 km/h (1 Bft) 3 min
05.02.2017 09:48 22,4 C 1,6 C 0,2 C 90 % 76 % 1009 hPa 0,0 l/m 4,1 km/h (1 Bft) 3 min
05.02.2017 09:51 22,4 C 1,7 C 0,2 C 90 % 76 % 1009 hPa 0,0 l/m 4,5 km/h (1 Bft) 3 min
05.02.2017 09:54 22,5 C 1,7 C 0,2 C 90 % 79 % 1009 hPa 0,0 l/m 3,7 km/h (1 Bft) 3 min
05.02.2017 09:57 22,5 C 1,8 C 0,3 C 89 % 80 % 1008 hPa 0,0 l/m 4,6 km/h (1 Bft) 3 min
05.02.2017 10:00 22,5 C 1,9 C 0,2 C 89 % 81 % 1008 hPa 0,0 l/m 3,9 km/h (1 Bft) 3 min
05.02.2017 10:03 22,4 C 2,1 C 0,4 C 86 % 81 % 1008 hPa 0,0 l/m 3,9 km/h (1 Bft) 3 min
05.02.2017 10:06 22,4 C 2,5 C 0,6 C 84 % 46 % 1008 hPa 0,0 l/m 5,0 km/h (1 Bft) 0 min
05.02.2017 10:09 22,4 C 2,7 C 0,8 C 83 % 46 % 1008 hPa 0,0 l/m 3,7 km/h (1 Bft) 0 min
05.02.2017 10:12 22,5 C 2,9 C 0,6 C 83 % 28 % 1008 hPa 0,0 l/m 6,9 km/h (2 Bft) 0 min
05.02.2017 10:15 22,5 C 2,9 C 0,7 C 82 % 22 % 1008 hPa 0,0 l/m 5,6 km/h (1 Bft) 0 min
05.02.2017 10:18 22,5 C 2,9 C 0,6 C 82 % 25 % 1008 hPa 0,0 l/m 7,1 km/h (2 Bft) 0 min
05.02.2017 10:21 22,4 C 2,9 C 0,8 C 82 % 81 % 1008 hPa 0,0 l/m 9,2 km/h (2 Bft) 3 min
05.02.2017 10:24 22,5 C 3,2 C 0,8 C 78 % 83 % 1008 hPa 0,0 l/m 5,9 km/h (2 Bft) 3 min
05.02.2017 10:27 22,5 C 3,3 C 1,0 C 78 % 83 % 1008 hPa 0,0 l/m 0,8 km/h (0 Bft) 3 min
05.02.2017 10:30 22,5 C 3,4 C 0,9 C 78 % 83 % 1008 hPa 0,0 l/m 5,8 km/h (2 Bft) 3 min
05.02.2017 10:33 22,5 C 3,5 C 1,0 C 78 % 83 % 1008 hPa 0,0 l/m 6,4 km/h (2 Bft) 3 min
05.02.2017 10:36 22,5 C 3,7 C 1,0 C 76 % 28 % 1008 hPa 0,0 l/m 7,8 km/h (2 Bft) 0 min
05.02.2017 10:39 22,5 C 3,9 C 1,8 C 75 % 22 % 1008 hPa 0,0 l/m 7,6 km/h (2 Bft) 0 min
05.02.2017 10:42 22,5 C 3,9 C 1,4 C 75 % 23 % 1008 hPa 0,0 l/m 6,2 km/h (2 Bft) 0 min
05.02.2017 10:45 22,5 C 3,9 C 1,7 C 74 % 83 % 1008 hPa 0,0 l/m 5,7 km/h (1 Bft) 3 min
05.02.2017 10:48 22,5 C 4,1 C 1,4 C 74 % 77 % 1008 hPa 0,0 l/m 6,3 km/h (2 Bft) 3 min
05.02.2017 10:51 22,5 C 4,1 C 1,5 C 74 % 37 % 1008 hPa 0,0 l/m 4,7 km/h (1 Bft) 0 min
05.02.2017 10:54 22,5 C 4,2 C 1,3 C 73 % 67 % 1008 hPa 0,0 l/m 4,7 km/h (1 Bft) 3 min
05.02.2017 10:57 22,5 C 4,2 C 1,3 C 73 % 83 % 1008 hPa 0,0 l/m 6,8 km/h (2 Bft) 3 min
05.02.2017 11:00 22,6 C 4,3 C 1,4 C 72 % 83 % 1008 hPa 0,0 l/m 7,2 km/h (2 Bft) 3 min
05.02.2017 11:03 22,5 C 4,3 C 1,3 C 72 % 83 % 1008 hPa 0,0 l/m 6,7 km/h (2 Bft) 3 min
05.02.2017 11:06 22,6 C 4,7 C 1,4 C 71 % 83 % 1008 hPa 0,0 l/m 4,4 km/h (1 Bft) 3 min
05.02.2017 11:09 22,6 C 4,7 C 1,3 C 70 % 83 % 1008 hPa 0,0 l/m 4,0 km/h (1 Bft) 3 min
05.02.2017 11:12 22,5 C 4,8 C 1,4 C 70 % 83 % 1008 hPa 0,0 l/m 5,8 km/h (2 Bft) 3 min
05.02.2017 11:15 22,6 C 4,9 C 1,3 C 70 % 45 % 1007 hPa 0,0 l/m 6,7 km/h (2 Bft) 0 min
05.02.2017 11:18 22,6 C 4,9 C 1,8 C 70 % 25 % 1007 hPa 0,0 l/m 6,1 km/h (2 Bft) 0 min
05.02.2017 11:21 22,6 C 4,9 C 1,8 C 69 % 25 % 1007 hPa 0,0 l/m 6,4 km/h (2 Bft) 0 min
05.02.2017 11:24 22,6 C 4,9 C 1,4 C 69 % 23 % 1007 hPa 0,0 l/m 5,3 km/h (1 Bft) 0 min
05.02.2017 11:27 22,6 C 5,1 C 1,4 C 70 % 24 % 1007 hPa 0,0 l/m 5,0 km/h (1 Bft) 0 min
05.02.2017 11:30 22,6 C 5,2 C 1,9 C 69 % 23 % 1007 hPa 0,0 l/m 7,0 km/h (2 Bft) 0 min
05.02.2017 11:33 22,4 C 5,5 C 2,0 C 69 % 23 % 1007 hPa 0,0 l/m 5,8 km/h (2 Bft) 0 min
05.02.2017 11:36 21,5 C 5,6 C 1,7 C 68 % 23 % 1007 hPa 0,0 l/m 5,7 km/h (1 Bft) 0 min
05.02.2017 11:39 21,2 C 5,6 C 2,3 C 67 % 24 % 1007 hPa 0,0 l/m 5,9 km/h (2 Bft) 0 min
05.02.2017 11:42 21,2 C 5,8 C 1,7 C 67 % 82 % 1007 hPa 0,0 l/m 5,2 km/h (1 Bft) 3 min
05.02.2017 11:45 21,3 C 6,1 C 1,6 C 66 % 83 % 1007 hPa 0,0 l/m 5,0 km/h (1 Bft) 3 min
05.02.2017 11:48 21,5 C 6,4 C 1,7 C 64 % 66 % 1007 hPa 0,0 l/m 5,0 km/h (1 Bft) 3 min
05.02.2017 11:51 21,6 C 6,7 C 2,1 C 64 % 40 % 1007 hPa 0,0 l/m 5,5 km/h (1 Bft) 0 min
05.02.2017 11:54 21,8 C 6,7 C 1,9 C 64 % 84 % 1007 hPa 0,0 l/m 5,5 km/h (1 Bft) 3 min
05.02.2017 11:57 21,8 C 6,9 C 3,6 C 62 % 84 % 1007 hPa 0,0 l/m 5,5 km/h (1 Bft) 3 min
05.02.2017 12:00 22,0 C 6,8 C 4,0 C 62 % 48 % 1007 hPa 0,0 l/m 6,7 km/h (2 Bft) 0 min
05.02.2017 12:03 22,1 C 6,7 C 3,6 C 62 % 30 % 1006 hPa 0,0 l/m 6,7 km/h (2 Bft) 0 min
05.02.2017 12:06 22,2 C 6,8 C 2,4 C 63 % 28 % 1006 hPa 0,0 l/m 5,0 km/h (1 Bft) 0 min
05.02.2017 12:09 22,2 C 6,9 C 2,2 C 63 % 81 % 1006 hPa 0,0 l/m 5,4 km/h (1 Bft) 3 min
05.02.2017 12:12 22,3 C 6,9 C 2,4 C 63 % 84 % 1006 hPa 0,0 l/m 5,3 km/h (1 Bft) 3 min
05.02.2017 12:15 22,3 C 7,2 C 2,5 C 62 % 84 % 1006 hPa 0,0 l/m 7,5 km/h (2 Bft) 3 min
05.02.2017 12:18 22,3 C 7,2 C 2,6 C 61 % 83 % 1006 hPa 0,0 l/m 7,9 km/h (2 Bft) 3 min
05.02.2017 12:21 22,4 C 7,2 C 2,8 C 61 % 83 % 1006 hPa 0,0 l/m 6,3 km/h (2 Bft) 3 min
05.02.2017 12:24 22,4 C 7,2 C 3,6 C 61 % 83 % 1006 hPa 0,0 l/m 6,6 km/h (2 Bft) 3 min
05.02.2017 12:27 22,4 C 7,4 C 3,3 C 61 % 82 % 1006 hPa 0,0 l/m 4,6 km/h (1 Bft) 3 min
05.02.2017 12:30 22,4 C 7,6 C 4,1 C 60 % 83 % 1006 hPa 0,0 l/m 5,0 km/h (1 Bft) 3 min
05.02.2017 12:33 22,4 C 7,7 C 3,0 C 59 % 83 % 1006 hPa 0,0 l/m 4,4 km/h (1 Bft) 3 min
05.02.2017 12:36 22,5 C 7,7 C 3,1 C 59 % 82 % 1006 hPa 0,0 l/m 4,1 km/h (1 Bft) 3 min
05.02.2017 12:39 22,5 C 7,6 C 3,0 C 59 % 76 % 1006 hPa 0,0 l/m 3,6 km/h (1 Bft) 3 min
05.02.2017 12:42 22,4 C 7,4 C 2,8 C 60 % 39 % 1006 hPa 0,0 l/m 6,7 km/h (2 Bft) 0 min
05.02.2017 12:45 22,4 C 7,2 C 2,9 C 60 % 83 % 1006 hPa 0,0 l/m 3,9 km/h (1 Bft) 3 min
05.02.2017 12:48 22,5 C 7,2 C 3,0 C 60 % 83 % 1006 hPa 0,0 l/m 4,0 km/h (1 Bft) 3 min
05.02.2017 12:51 22,5 C 7,3 C 3,5 C 60 % 83 % 1006 hPa 0,0 l/m 4,3 km/h (1 Bft) 3 min
05.02.2017 12:54 22,5 C 7,5 C 3,2 C 59 % 83 % 1006 hPa 0,0 l/m 5,3 km/h (1 Bft) 3 min
05.02.2017 12:57 22,5 C 7,8 C 3,7 C 58 % 83 % 1006 hPa 0,0 l/m 5,9 km/h (2 Bft) 3 min
05.02.2017 13:00 22,6 C 8,0 C 4,8 C 58 % 83 % 1006 hPa 0,0 l/m 5,9 km/h (2 Bft) 3 min
05.02.2017 13:03 22,6 C 7,9 C 4,4 C 57 % 83 % 1006 hPa 0,0 l/m 5,3 km/h (1 Bft) 3 min
05.02.2017 13:06 22,6 C 8,0 C 3,9 C 58 % 61 % 1006 hPa 0,0 l/m 3,1 km/h (1 Bft) 3 min
05.02.2017 13:09 22,6 C 7,8 C 3,6 C 57 % 83 % 1006 hPa 0,0 l/m 2,5 km/h (1 Bft) 3 min
05.02.2017 13:12 22,7 C 7,9 C 4,1 C 57 % 83 % 1006 hPa 0,0 l/m 4,7 km/h (1 Bft) 3 min
05.02.2017 13:15 22,8 C 8,0 C 4,1 C 57 % 83 % 1006 hPa 0,0 l/m 5,0 km/h (1 Bft) 3 min
05.02.2017 13:18 22,7 C 7,9 C 3,9 C 57 % 82 % 1006 hPa 0,0 l/m 6,4 km/h (2 Bft) 3 min
05.02.2017 13:21 22,7 C 7,6 C 3,9 C 57 % 71 % 1006 hPa 0,0 l/m 5,0 km/h (1 Bft) 3 min
05.02.2017 13:24 22,8 C 7,4 C 4,1 C 58 % 45 % 1006 hPa 0,0 l/m 7,6 km/h (2 Bft) 0 min
05.02.2017 13:27 22,7 C 7,4 C 4,1 C 58 % 82 % 1006 hPa 0,0 l/m 6,1 km/h (2 Bft) 3 min
05.02.2017 13:30 22,8 C 7,4 C 4,2 C 58 % 83 % 1006 hPa 0,0 l/m 5,3 km/h (1 Bft) 3 min
05.02.2017 13:33 22,8 C 7,5 C 4,4 C 58 % 83 % 1006 hPa 0,0 l/m 6,0 km/h (2 Bft) 3 min
05.02.2017 13:36 22,8 C 7,6 C 4,4 C 58 % 83 % 1006 hPa 0,0 l/m 8,2 km/h (2 Bft) 3 min
05.02.2017 13:39 22,8 C 7,8 C 4,5 C 57 % 83 % 1006 hPa 0,0 l/m 7,2 km/h (2 Bft) 3 min
05.02.2017 13:42 22,9 C 7,7 C 4,9 C 57 % 83 % 1006 hPa 0,0 l/m 8,6 km/h (2 Bft) 3 min
05.02.2017 13:45 22,9 C 7,7 C 4,8 C 56 % 83 % 1006 hPa 0,0 l/m 6,8 km/h (2 Bft) 3 min
05.02.2017 13:48 22,9 C 8,0 C 5,0 C 56 % 82 % 1006 hPa 0,0 l/m 6,8 km/h (2 Bft) 3 min
05.02.2017 13:51 22,8 C 8,0 C 5,1 C 55 % 82 % 1005 hPa 0,0 l/m 7,1 km/h (2 Bft) 3 min
05.02.2017 13:54 22,4 C 7,9 C 5,1 C 56 % 81 % 1005 hPa 0,0 l/m 7,1 km/h (2 Bft) 3 min
05.02.2017 13:57 22,1 C 7,8 C 5,1 C 56 % 81 % 1005 hPa 0,0 l/m 9,6 km/h (2 Bft) 3 min
05.02.2017 14:00 21,8 C 7,7 C 5,3 C 56 % 83 % 1005 hPa 0,0 l/m 7,8 km/h (2 Bft) 3 min
05.02.2017 14:03 21,8 C 7,9 C 5,3 C 55 % 83 % 1005 hPa 0,0 l/m 6,5 km/h (2 Bft) 3 min
05.02.2017 14:06 21,8 C 8,0 C 5,3 C 54 % 83 % 1005 hPa 0,0 l/m 6,5 km/h (2 Bft) 3 min
05.02.2017 14:09 22,0 C 8,1 C 5,3 C 54 % 82 % 1005 hPa 0,0 l/m 5,9 km/h (2 Bft) 3 min
05.02.2017 14:12 22,1 C 8,5 C 5,5 C 53 % 82 % 1005 hPa 0,0 l/m 5,4 km/h (1 Bft) 3 min
05.02.2017 14:15 22,2 C 8,4 C 5,5 C 52 % 82 % 1005 hPa 0,0 l/m 7,8 km/h (2 Bft) 3 min
05.02.2017 14:18 22,3 C 8,0 C 5,4 C 54 % 82 % 1005 hPa 0,0 l/m 7,6 km/h (2 Bft) 3 min
05.02.2017 14:21 22,3 C 8,0 C 5,4 C 54 % 82 % 1005 hPa 0,0 l/m 5,4 km/h (1 Bft) 3 min
05.02.2017 14:24 22,4 C 8,0 C 5,5 C 55 % 75 % 1005 hPa 0,0 l/m 7,9 km/h (2 Bft) 3 min
05.02.2017 14:27 22,4 C 7,7 C 5,4 C 55 % 74 % 1005 hPa 0,0 l/m 7,6 km/h (2 Bft) 3 min
05.02.2017 14:30 22,5 C 7,4 C 5,4 C 56 % 65 % 1005 hPa 0,0 l/m 9,0 km/h (2 Bft) 3 min
05.02.2017 14:33 22,5 C 7,2 C 5,4 C 57 % 70 % 1005 hPa 0,0 l/m 9,3 km/h (2 Bft) 3 min
05.02.2017 14:36 22,5 C 7,2 C 5,4 C 57 % 49 % 1005 hPa 0,0 l/m 8,9 km/h (2 Bft) 0 min
05.02.2017 14:39 22,5 C 7,2 C 5,5 C 57 % 56 % 1005 hPa 0,0 l/m 7,9 km/h (2 Bft) 3 min
05.02.2017 14:42 22,6 C 7,2 C 5,3 C 58 % 61 % 1005 hPa 0,0 l/m 7,6 km/h (2 Bft) 3 min
05.02.2017 14:45 22,5 C 7,1 C 5,3 C 58 % 45 % 1005 hPa 0,0 l/m 4,5 km/h (1 Bft) 0 min
05.02.2017 14:48 22,6 C 7,1 C 5,2 C 58 % 35 % 1005 hPa 0,0 l/m 4,2 km/h (1 Bft) 0 min
05.02.2017 14:51 22,6 C 7,1 C 5,1 C 58 % 48 % 1005 hPa 0,0 l/m 3,4 km/h (1 Bft) 0 min
05.02.2017 14:54 22,6 C 7,0 C 4,8 C 59 % 45 % 1005 hPa 0,0 l/m 2,7 km/h (1 Bft) 0 min
05.02.2017 14:57 22,6 C 6,9 C 5,0 C 59 % 56 % 1005 hPa 0,0 l/m 2,7 km/h (1 Bft) 3 min
05.02.2017 15:00 22,6 C 6,8 C 4,8 C 60 % 42 % 1005 hPa 0,0 l/m 2,8 km/h (1 Bft) 0 min
05.02.2017 15:03 22,6 C 6,9 C 4,8 C 60 % 55 % 1005 hPa 0,0 l/m 2,0 km/h (1 Bft) 3 min
05.02.2017 15:06 22,6 C 6,9 C 4,7 C 60 % 44 % 1005 hPa 0,0 l/m 2,4 km/h (1 Bft) 3 min
05.02.2017 15:09 22,6 C 6,8 C 4,6 C 61 % 49 % 1005 hPa 0,0 l/m 2,4 km/h (1 Bft) 3 min
05.02.2017 15:12 22,6 C 6,8 C 4,5 C 61 % 68 % 1005 hPa 0,0 l/m 2,9 km/h (1 Bft) 3 min
05.02.2017 15:15 22,6 C 6,8 C 4,5 C 61 % 34 % 1005 hPa 0,0 l/m 4,1 km/h (1 Bft) 0 min
05.02.2017 15:18 22,6 C 6,7 C 4,4 C 62 % 30 % 1005 hPa 0,0 l/m 3,7 km/h (1 Bft) 0 min
05.02.2017 15:21 22,6 C 6,6 C 4,3 C 62 % 26 % 1005 hPa 0,0 l/m 2,0 km/h (1 Bft) 0 min
05.02.2017 15:24 22,6 C 6,5 C 4,3 C 62 % 25 % 1005 hPa 0,0 l/m 0,0 km/h (0 Bft) 0 min
05.02.2017 15:27 22,6 C 6,5 C 4,2 C 62 % 24 % 1005 hPa 0,0 l/m 0,3 km/h (0 Bft) 0 min
05.02.2017 15:30 22,6 C 6,3 C 4,2 C 63 % 24 % 1005 hPa 0,0 l/m 1,0 km/h (0 Bft) 0 min
05.02.2017 15:33 22,6 C 6,2 C 4,1 C 64 % 25 % 1005 hPa 0,0 l/m 2,0 km/h (1 Bft) 0 min
05.02.2017 15:36 22,6 C 6,2 C 4,1 C 64 % 25 % 1005 hPa 0,0 l/m 1,0 km/h (0 Bft) 0 min
05.02.2017 15:39 22,6 C 6,1 C 4,0 C 64 % 25 % 1005 hPa 0,0 l/m 4,2 km/h (1 Bft) 0 min
05.02.2017 15:42 22,6 C 6,0 C 3,9 C 64 % 25 % 1005 hPa 0,0 l/m 4,2 km/h (1 Bft) 0 min
05.02.2017 15:45 22,7 C 6,0 C 3,8 C 65 % 25 % 1005 hPa 0,0 l/m 1,5 km/h (1 Bft) 0 min
05.02.2017 15:48 22,7 C 6,0 C 3,8 C 65 % 25 % 1005 hPa 0,0 l/m 0,1 km/h (0 Bft) 0 min
05.02.2017 15:51 22,7 C 5,9 C 3,7 C 65 % 23 % 1005 hPa 0,0 l/m 0,1 km/h (0 Bft) 0 min
05.02.2017 15:54 22,7 C 5,8 C 3,7 C 66 % 22 % 1005 hPa 0,0 l/m 0,0 km/h (0 Bft) 0 min
05.02.2017 15:57 22,7 C 5,8 C 3,6 C 65 % 20 % 1005 hPa 0,0 l/m 0,0 km/h (0 Bft) 0 min
05.02.2017 16:00 22,7 C 5,8 C 3,5 C 66 % 18 % 1005 hPa 0,0 l/m 0,0 km/h (0 Bft) 0 min
05.02.2017 16:03 22,7 C 5,7 C 3,5 C 66 % 16 % 1005 hPa 0,0 l/m 0,0 km/h (0 Bft) 0 min
05.02.2017 16:06 22,7 C 5,6 C 3,3 C 66 % 16 % 1005 hPa 0,0 l/m 0,0 km/h (0 Bft) 0 min
05.02.2017 16:09 22,7 C 5,3 C 3,4 C 67 % 18 % 1005 hPa 0,0 l/m 0,0 km/h (0 Bft) 0 min
05.02.2017 16:12 22,7 C 5,2 C 3,3 C 67 % 15 % 1005 hPa 0,0 l/m 0,0 km/h (0 Bft) 0 min
05.02.2017 16:15 22,7 C 5,2 C 3,3 C 68 % 15 % 1005 hPa 0,0 l/m 0,0 km/h (0 Bft) 0 min
05.02.2017 16:18 22,7 C 5,1 C 3,2 C 67 % 15 % 1005 hPa 0,0 l/m 0,0 km/h (0 Bft) 0 min
05.02.2017 16:21 22,7 C 5,1 C 3,1 C 69 % 14 % 1005 hPa 0,0 l/m 0,0 km/h (0 Bft) 0 min
05.02.2017 16:24 22,7 C 4,8 C 3,1 C 69 % 14 % 1005 hPa 0,0 l/m 0,0 km/h (0 Bft) 0 min
05.02.2017 16:27 22,7 C 4,7 C 3,0 C 69 % 13 % 1005 hPa 0,0 l/m 0,0 km/h (0 Bft) 0 min
05.02.2017 16:30 22,7 C 4,7 C 3,0 C 69 % 12 % 1005 hPa 0,0 l/m 0,0 km/h (0 Bft) 0 min
05.02.2017 16:33 22,7 C 4,6 C 2,9 C 70 % 11 % 1005 hPa 0,0 l/m 0,0 km/h (0 Bft) 0 min
05.02.2017 16:36 22,7 C 4,5 C 2,6 C 70 % 11 % 1005 hPa 0,0 l/m 0,0 km/h (0 Bft) 0 min
05.02.2017 16:39 22,6 C 4,5 C 2,7 C 70 % 10 % 1005 hPa 0,0 l/m 0,0 km/h (0 Bft) 0 min
05.02.2017 16:42 22,6 C 4,3 C 2,7 C 71 % 8 % 1005 hPa 0,0 l/m 0,0 km/h (0 Bft) 0 min
05.02.2017 16:45 22,7 C 4,1 C 2,6 C 71 % 7 % 1005 hPa 0,0 l/m 0,0 km/h (0 Bft) 0 min
05.02.2017 16:48 22,6 C 4,1 C 2,6 C 71 % 6 % 1005 hPa 0,0 l/m 0,0 km/h (0 Bft) 0 min
05.02.2017 16:51 22,6 C 3,9 C 2,5 C 72 % 5 % 1005 hPa 0,0 l/m 1,2 km/h (1 Bft) 0 min
05.02.2017 16:54 22,6 C 3,8 C 2,4 C 72 % 5 % 1004 hPa 0,0 l/m 0,0 km/h (0 Bft) 0 min
05.02.2017 16:57 22,6 C 3,6 C 2,4 C 72 % 4 % 1005 hPa 0,0 l/m 0,0 km/h (0 Bft) 3 min
05.02.2017 17:00 22,6 C 3,6 C 2,4 C 73 % 3 % 1005 hPa 0,0 l/m 0,0 km/h (0 Bft) 3 min
05.02.2017 17:03 22,7 C 3,6 C 2,4 C 73 % 3 % 1005 hPa 0,0 l/m 0,0 km/h (0 Bft) 0 min
05.02.2017 17:06 22,7 C 3,1 C 2,2 C 74 % 2 % 1005 hPa 0,0 l/m 0,0 km/h (0 Bft) 0 min
05.02.2017 17:09 22,7 C 3,1 C 2,2 C 74 % 1 % 1005 hPa 0,0 l/m 0,0 km/h (0 Bft) 0 min
05.02.2017 17:12 22,7 C 3,0 C 2,0 C 74 % 1 % 1005 hPa 0,0 l/m 0,0 km/h (0 Bft) 0 min
05.02.2017 17:15 22,7 C 3,0 C 2,0 C 75 % 1 % 1005 hPa 0,0 l/m 0,0 km/h (0 Bft) 0 min
05.02.2017 17:18 22,7 C 2,9 C 1,9 C 75 % 1 % 1004 hPa 0,0 l/m 0,0 km/h (0 Bft) 0 min
05.02.2017 17:21 22,7 C 2,8 C 1,9 C 75 % 0 % 1004 hPa 0,0 l/m 0,0 km/h (0 Bft) 0 min
05.02.2017 17:24 22,7 C 2,7 C 1,9 C 75 % 0 % 1004 hPa 0,0 l/m 2,4 km/h (1 Bft) 0 min
05.02.2017 17:27 22,7 C 2,7 C 1,6 C 75 % 0 % 1004 hPa 0,0 l/m 1,7 km/h (1 Bft) 0 min
05.02.2017 17:30 22,7 C 2,5 C 1,6 C 76 % 0 % 1004 hPa 0,0 l/m 0,2 km/h (0 Bft) 0 min
05.02.2017 17:33 22,7 C 2,3 C 1,7 C 77 % 0 % 1004 hPa 0,0 l/m 0,6 km/h (0 Bft) 0 min
05.02.2017 17:36 22,7 C 2,3 C 1,6 C 77 % 0 % 1004 hPa 0,0 l/m 0,1 km/h (0 Bft) 0 min
05.02.2017 17:39 22,7 C 2,3 C 1,6 C 77 % 0 % 1005 hPa 0,0 l/m 0,0 km/h (0 Bft) 0 min
05.02.2017 17:42 22,7 C 2,2 C 1,6 C 77 % 0 % 1005 hPa 0,0 l/m 2,4 km/h (1 Bft) 0 min
05.02.2017 17:45 22,8 C 2,0 C 1,5 C 77 % 0 % 1005 hPa 0,0 l/m 3,3 km/h (1 Bft) 0 min
05.02.2017 17:48 22,8 C 1,9 C 1,4 C 78 % 0 % 1005 hPa 0,0 l/m 1,8 km/h (1 Bft) 0 min
05.02.2017 17:51 22,8 C 1,9 C 1,3 C 78 % 0 % 1005 hPa 0,0 l/m 1,9 km/h (1 Bft) 0 min
05.02.2017 17:54 22,8 C 1,8 C 1,5 C 78 % 0 % 1005 hPa 0,0 l/m 2,0 km/h (1 Bft) 0 min
05.02.2017 17:57 22,8 C 1,7 C 1,3 C 78 % 0 % 1005 hPa 0,0 l/m 2,1 km/h (1 Bft) 0 min
05.02.2017 18:00 22,8 C 1,7 C 1,3 C 79 % 0 % 1005 hPa 0,0 l/m 3,9 km/h (1 Bft) 0 min
05.02.2017 18:03 22,8 C 1,7 C 1,6 C 79 % 0 % 1005 hPa 0,0 l/m 3,8 km/h (1 Bft) 0 min
05.02.2017 18:06 22,8 C 1,6 C 1,2 C 79 % 0 % 1005 hPa 0,0 l/m 1,3 km/h (1 Bft) 0 min
05.02.2017 18:09 22,7 C 1,6 C 1,3 C 79 % 0 % 1005 hPa 0,0 l/m 3,3 km/h (1 Bft) 0 min
05.02.2017 18:12 22,6 C 1,5 C 1,3 C 79 % 0 % 1005 hPa 0,0 l/m 4,0 km/h (1 Bft) 0 min
05.02.2017 18:15 22,7 C 1,5 C 1,2 C 79 % 0 % 1005 hPa 0,0 l/m 2,5 km/h (1 Bft) 0 min
05.02.2017 18:18 22,7 C 1,4 C 1,2 C 79 % 0 % 1005 hPa 0,0 l/m 2,8 km/h (1 Bft) 0 min
05.02.2017 18:21 22,6 C 1,3 C 1,1 C 80 % 0 % 1005 hPa 0,0 l/m 4,8 km/h (1 Bft) 0 min
05.02.2017 18:24 22,6 C 1,3 C 1,1 C 80 % 0 % 1005 hPa 0,0 l/m 1,0 km/h (0 Bft) 0 min
05.02.2017 18:27 22,6 C 1,2 C 1,0 C 80 % 0 % 1005 hPa 0,0 l/m 2,4 km/h (1 Bft) 0 min
05.02.2017 18:30 22,6 C 1,1 C 1,1 C 80 % 0 % 1005 hPa 0,0 l/m 1,1 km/h (1 Bft) 0 min
05.02.2017 18:33 22,6 C 1,1 C 1,1 C 80 % 0 % 1005 hPa 0,0 l/m 0,6 km/h (0 Bft) 0 min
05.02.2017 18:36 22,6 C 1,0 C 0,9 C 80 % 0 % 1005 hPa 0,0 l/m 0,5 km/h (0 Bft) 0 min
05.02.2017 18:39 22,6 C 1,0 C 1,0 C 81 % 0 % 1005 hPa 0,0 l/m 1,2 km/h (1 Bft) 0 min
05.02.2017 18:42 22,5 C 1,0 C 1,0 C 81 % 0 % 1005 hPa 0,0 l/m 2,5 km/h (1 Bft) 0 min
05.02.2017 18:45 22,6 C 0,9 C 0,9 C 80 % 0 % 1005 hPa 0,0 l/m 1,0 km/h (0 Bft) 0 min
05.02.2017 18:48 22,5 C 0,9 C 1,0 C 80 % 0 % 1005 hPa 0,0 l/m 1,5 km/h (1 Bft) 0 min
05.02.2017 18:51 22,5 C 0,8 C 0,7 C 81 % 0 % 1005 hPa 0,0 l/m 0,0 km/h (0 Bft) 0 min
05.02.2017 18:54 22,5 C 0,7 C 0,8 C 81 % 0 % 1005 hPa 0,0 l/m 0,0 km/h (0 Bft) 0 min
05.02.2017 18:57 22,5 C 0,7 C 0,8 C 81 % 0 % 1005 hPa 0,0 l/m 0,0 km/h (0 Bft) 0 min
05.02.2017 19:00 22,5 C 0,6 C 0,7 C 81 % 0 % 1005 hPa 0,0 l/m 0,0 km/h (0 Bft) 0 min
05.02.2017 19:03 22,5 C 0,5 C 0,7 C 82 % 0 % 1005 hPa 0,0 l/m 0,0 km/h (0 Bft) 0 min
05.02.2017 19:06 22,4 C 0,4 C 0,6 C 83 % 0 % 1005 hPa 0,0 l/m 0,0 km/h (0 Bft) 0 min
05.02.2017 19:09 22,4 C 0,2 C 0,5 C 83 % 0 % 1005 hPa 0,0 l/m 0,0 km/h (0 Bft) 0 min
05.02.2017 19:12 22,4 C 0,2 C 0,5 C 83 % 0 % 1005 hPa 0,0 l/m 2,0 km/h (1 Bft) 0 min
05.02.2017 19:15 22,4 C 0,1 C 0,5 C 83 % 0 % 1005 hPa 0,0 l/m 4,5 km/h (1 Bft) 0 min
05.02.2017 19:18 22,4 C 0,1 C 0,5 C 83 % 0 % 1005 hPa 0,0 l/m 2,6 km/h (1 Bft) 0 min
05.02.2017 19:21 22,4 C 0,1 C 0,5 C 83 % 0 % 1005 hPa 0,0 l/m 3,0 km/h (1 Bft) 0 min
05.02.2017 19:24 22,4 C 0,2 C 0,5 C 83 % 0 % 1005 hPa 0,0 l/m 5,7 km/h (1 Bft) 0 min
05.02.2017 19:27 22,4 C 0,1 C 0,4 C 83 % 0 % 1005 hPa 0,0 l/m 4,8 km/h (1 Bft) 0 min
05.02.2017 19:30 22,4 C 0,1 C 0,5 C 83 % 0 % 1005 hPa 0,0 l/m 5,0 km/h (1 Bft) 0 min
05.02.2017 19:33 22,4 C 0,1 C 0,5 C 83 % 0 % 1005 hPa 0,0 l/m 0,0 km/h (0 Bft) 0 min
05.02.2017 19:36 22,4 C 0,1 C 0,3 C 83 % 0 % 1005 hPa 0,0 l/m 0,0 km/h (0 Bft) 0 min
05.02.2017 19:39 22,4 C 0,1 C 0,4 C 83 % 0 % 1005 hPa 0,0 l/m 0,0 km/h (0 Bft) 0 min
05.02.2017 19:42 22,4 C 0,0 C 0,2 C 83 % 0 % 1005 hPa 0,0 l/m 1,4 km/h (1 Bft) 0 min
05.02.2017 19:45 22,4 C -0,2 C 0,3 C 83 % 0 % 1005 hPa 0,0 l/m 0,0 km/h (0 Bft) 0 min
05.02.2017 19:48 22,4 C -0,2 C 0,0 C 83 % 0 % 1005 hPa 0,0 l/m 1,7 km/h (1 Bft) 0 min
05.02.2017 19:51 22,4 C -0,3 C 0,3 C 83 % 0 % 1005 hPa 0,0 l/m 2,1 km/h (1 Bft) 0 min
05.02.2017 19:54 22,4 C -0,3 C 0,2 C 83 % 0 % 1005 hPa 0,0 l/m 0,1 km/h (0 Bft) 0 min
05.02.2017 19:57 22,4 C -0,4 C 0,2 C 83 % 0 % 1005 hPa 0,0 l/m 0,0 km/h (0 Bft) 0 min
05.02.2017 20:00 22,4 C -0,5 C 0,0 C 83 % 0 % 1005 hPa 0,0 l/m 1,0 km/h (0 Bft) 0 min
05.02.2017 20:03 22,4 C -0,6 C 0,1 C 83 % 0 % 1005 hPa 0,0 l/m 0,0 km/h (0 Bft) 0 min
05.02.2017 20:06 22,4 C -0,6 C -0,2 C 83 % 0 % 1005 hPa 0,0 l/m 0,0 km/h (0 Bft) 0 min
05.02.2017 20:09 22,4 C -0,8 C 0,2 C 84 % 0 % 1005 hPa 0,0 l/m 0,0 km/h (0 Bft) 0 min
05.02.2017 20:12 22,4 C -0,8 C 0,0 C 84 % 0 % 1005 hPa 0,0 l/m 0,0 km/h (0 Bft) 0 min
05.02.2017 20:15 22,4 C -0,9 C 0,1 C 84 % 0 % 1005 hPa 0,0 l/m 0,0 km/h (0 Bft) 0 min
05.02.2017 20:18 22,4 C -0,9 C 0,0 C 84 % 0 % 1005 hPa 0,0 l/m 0,0 km/h (0 Bft) 0 min
05.02.2017 20:21 22,4 C -1,0 C 0,0 C 85 % 0 % 1005 hPa 0,0 l/m 0,0 km/h (0 Bft) 0 min
05.02.2017 20:24 22,4 C -1,0 C 0,0 C 85 % 0 % 1005 hPa 0,0 l/m 0,0 km/h (0 Bft) 0 min
05.02.2017 20:27 22,4 C -1,0 C -0,2 C 85 % 0 % 1005 hPa 0,0 l/m 0,0 km/h (0 Bft) 0 min
05.02.2017 20:30 22,4 C -1,0 C -0,1 C 85 % 0 % 1005 hPa 0,0 l/m 0,0 km/h (0 Bft) 0 min
05.02.2017 20:33 22,4 C -1,0 C -0,1 C 85 % 0 % 1005 hPa 0,0 l/m 0,0 km/h (0 Bft) 0 min
05.02.2017 20:36 22,4 C -1,0 C -0,2 C 85 % 0 % 1005 hPa 0,0 l/m 0,0 km/h (0 Bft) 0 min
05.02.2017 20:39 22,4 C -1,0 C -0,1 C 85 % 0 % 1005 hPa 0,0 l/m 0,0 km/h (0 Bft) 0 min
05.02.2017 20:42 22,4 C -0,9 C -0,1 C 86 % 0 % 1005 hPa 0,0 l/m 0,0 km/h (0 Bft) 0 min
05.02.2017 20:45 22,4 C -1,0 C -0,1 C 86 % 0 % 1005 hPa 0,0 l/m 0,0 km/h (0 Bft) 0 min
05.02.2017 20:48 22,4 C -1,0 C 0,0 C 86 % 0 % 1005 hPa 0,0 l/m 0,0 km/h (0 Bft) 0 min
05.02.2017 20:51 22,4 C -1,0 C -0,1 C 86 % 0 % 1005 hPa 0,0 l/m 0,0 km/h (0 Bft) 0 min
05.02.2017 20:54 22,4 C -1,0 C -0,1 C 86 % 0 % 1005 hPa 0,0 l/m 0,0 km/h (0 Bft) 0 min
05.02.2017 20:57 22,4 C -1,0 C -0,2 C 86 % 0 % 1005 hPa 0,0 l/m 0,0 km/h (0 Bft) 0 min
05.02.2017 21:00 22,4 C -1,0 C -0,2 C 86 % 0 % 1005 hPa 0,0 l/m 0,0 km/h (0 Bft) 0 min
05.02.2017 21:03 22,4 C -1,0 C -0,3 C 86 % 0 % 1005 hPa 0,0 l/m 0,0 km/h (0 Bft) 0 min
05.02.2017 21:06 22,4 C -1,0 C -0,1 C 86 % 0 % 1005 hPa 0,0 l/m 0,0 km/h (0 Bft) 0 min
05.02.2017 21:09 22,4 C -1,0 C -0,1 C 86 % 0 % 1005 hPa 0,0 l/m 0,0 km/h (0 Bft) 0 min
05.02.2017 21:12 22,4 C -1,0 C -0,1 C 86 % 0 % 1005 hPa 0,0 l/m 0,0 km/h (0 Bft) 0 min
05.02.2017 21:15 22,4 C -1,0 C -0,1 C 86 % 0 % 1005 hPa 0,0 l/m 0,0 km/h (0 Bft) 0 min
05.02.2017 21:18 22,3 C -1,0 C -0,1 C 86 % 0 % 1005 hPa 0,0 l/m 0,0 km/h (0 Bft) 0 min
05.02.2017 21:21 22,4 C -1,0 C -0,1 C 86 % 0 % 1005 hPa 0,0 l/m 0,0 km/h (0 Bft) 0 min
05.02.2017 21:24 22,4 C -1,0 C -0,2 C 86 % 0 % 1005 hPa 0,0 l/m 0,0 km/h (0 Bft) 0 min
05.02.2017 21:27 22,3 C -1,0 C -0,3 C 86 % 0 % 1005 hPa 0,0 l/m 0,0 km/h (0 Bft) 0 min
05.02.2017 21:30 22,3 C -1,0 C -0,4 C 87 % 0 % 1005 hPa 0,0 l/m 0,0 km/h (0 Bft) 0 min
05.02.2017 21:33 22,3 C -1,1 C -0,4 C 86 % 0 % 1005 hPa 0,0 l/m 0,0 km/h (0 Bft) 0 min
05.02.2017 21:36 22,3 C -1,1 C -0,3 C 86 % 0 % 1005 hPa 0,0 l/m 0,5 km/h (0 Bft) 0 min
05.02.2017 21:39 22,3 C -1,2 C -0,3 C 86 % 0 % 1005 hPa 0,0 l/m 1,5 km/h (1 Bft) 0 min
05.02.2017 21:42 22,3 C -1,2 C -0,3 C 87 % 0 % 1005 hPa 0,0 l/m 0,3 km/h (0 Bft) 0 min
05.02.2017 21:45 22,3 C -1,2 C -0,2 C 87 % 0 % 1005 hPa 0,0 l/m 0,3 km/h (0 Bft) 0 min
05.02.2017 21:48 22,3 C -1,1 C -0,1 C 87 % 0 % 1005 hPa 0,0 l/m 3,1 km/h (1 Bft) 0 min
05.02.2017 21:51 22,3 C -1,1 C -0,1 C 87 % 0 % 1005 hPa 0,0 l/m 2,1 km/h (1 Bft) 0 min
05.02.2017 21:54 22,3 C -1,1 C -0,1 C 87 % 0 % 1005 hPa 0,0 l/m 0,0 km/h (0 Bft) 0 min
05.02.2017 21:57 22,3 C -1,1 C -0,1 C 87 % 0 % 1005 hPa 0,0 l/m 0,0 km/h (0 Bft) 0 min
05.02.2017 22:00 22,3 C -1,1 C -0,2 C 87 % 0 % 1005 hPa 0,0 l/m 0,0 km/h (0 Bft) 0 min
05.02.2017 22:03 22,3 C -1,1 C -0,2 C 87 % 0 % 1005 hPa 0,0 l/m 0,0 km/h (0 Bft) 0 min
05.02.2017 22:06 22,2 C -1,1 C -0,1 C 87 % 0 % 1005 hPa 0,0 l/m 0,0 km/h (0 Bft) 0 min
05.02.2017 22:09 22,2 C -0,9 C -0,1 C 87 % 0 % 1005 hPa 0,0 l/m 0,0 km/h (0 Bft) 0 min
05.02.2017 22:12 22,2 C -0,9 C -0,3 C 87 % 0 % 1005 hPa 0,0 l/m 0,0 km/h (0 Bft) 0 min
05.02.2017 22:15 22,2 C -0,8 C 0,0 C 87 % 0 % 1005 hPa 0,0 l/m 0,1 km/h (0 Bft) 0 min
05.02.2017 22:18 22,2 C -0,8 C -0,1 C 87 % 0 % 1005 hPa 0,0 l/m 0,0 km/h (0 Bft) 0 min
05.02.2017 22:21 22,2 C -0,8 C -0,2 C 87 % 0 % 1005 hPa 0,0 l/m 0,0 km/h (0 Bft) 0 min
05.02.2017 22:24 22,2 C -0,8 C -0,1 C 87 % 0 % 1005 hPa 0,0 l/m 2,8 km/h (1 Bft) 0 min
05.02.2017 22:27 22,2 C -0,8 C -0,1 C 87 % 0 % 1005 hPa 0,0 l/m 1,8 km/h (1 Bft) 0 min
05.02.2017 22:30 22,2 C -0,6 C -0,1 C 86 % 0 % 1005 hPa 0,0 l/m 0,0 km/h (0 Bft) 0 min
05.02.2017 22:33 22,2 C -0,6 C -0,1 C 86 % 0 % 1005 hPa 0,0 l/m 0,0 km/h (0 Bft) 0 min
05.02.2017 22:36 22,2 C -0,6 C -0,1 C 86 % 0 % 1005 hPa 0,0 l/m 0,0 km/h (0 Bft) 0 min
05.02.2017 22:39 22,2 C -0,6 C -0,1 C 86 % 0 % 1005 hPa 0,0 l/m 0,0 km/h (0 Bft) 0 min
05.02.2017 22:42 22,2 C -0,6 C -0,1 C 86 % 0 % 1005 hPa 0,0 l/m 0,0 km/h (0 Bft) 0 min
05.02.2017 22:45 22,2 C -0,7 C -0,1 C 86 % 0 % 1005 hPa 0,0 l/m 0,0 km/h (0 Bft) 0 min
05.02.2017 22:48 22,2 C -0,6 C 0,0 C 86 % 0 % 1005 hPa 0,0 l/m 0,0 km/h (0 Bft) 0 min
05.02.2017 22:51 22,2 C -0,7 C -0,3 C 86 % 0 % 1005 hPa 0,0 l/m 0,0 km/h (0 Bft) 0 min
05.02.2017 22:54 22,2 C -0,7 C -0,2 C 86 % 0 % 1005 hPa 0,0 l/m 0,0 km/h (0 Bft) 0 min
05.02.2017 22:57 22,2 C -0,7 C -0,2 C 86 % 0 % 1005 hPa 0,0 l/m 0,0 km/h (0 Bft) 0 min
05.02.2017 23:00 22,2 C -0,8 C -0,3 C 86 % 0 % 1005 hPa 0,0 l/m 0,0 km/h (0 Bft) 0 min
05.02.2017 23:03 22,2 C -0,8 C -0,2 C 86 % 0 % 1005 hPa 0,0 l/m 0,0 km/h (0 Bft) 0 min
05.02.2017 23:06 22,2 C -0,8 C -0,1 C 86 % 0 % 1005 hPa 0,0 l/m 0,0 km/h (0 Bft) 0 min
05.02.2017 23:09 22,2 C -0,8 C -0,1 C 86 % 0 % 1005 hPa 0,0 l/m 0,0 km/h (0 Bft) 0 min
05.02.2017 23:12 22,2 C -0,9 C -0,1 C 86 % 0 % 1005 hPa 0,0 l/m 0,0 km/h (0 Bft) 0 min
05.02.2017 23:15 22,2 C -0,9 C -0,2 C 86 % 0 % 1005 hPa 0,0 l/m 0,0 km/h (0 Bft) 0 min
05.02.2017 23:18 22,2 C -0,9 C -0,2 C 86 % 0 % 1005 hPa 0,0 l/m 0,0 km/h (0 Bft) 0 min
05.02.2017 23:21 22,2 C -0,9 C -0,1 C 86 % 0 % 1005 hPa 0,0 l/m 0,0 km/h (0 Bft) 0 min
05.02.2017 23:24 22,2 C -1,0 C -0,2 C 86 % 0 % 1005 hPa 0,0 l/m 0,0 km/h (0 Bft) 0 min
05.02.2017 23:27 22,2 C -1,0 C -0,2 C 86 % 0 % 1005 hPa 0,0 l/m 0,0 km/h (0 Bft) 0 min
05.02.2017 23:30 22,2 C -1,0 C -0,2 C 86 % 0 % 1005 hPa 0,0 l/m 0,0 km/h (0 Bft) 0 min
05.02.2017 23:33 22,2 C -1,0 C -0,1 C 86 % 0 % 1005 hPa 0,0 l/m 0,0 km/h (0 Bft) 0 min
05.02.2017 23:36 22,2 C -1,1 C -0,2 C 87 % 0 % 1005 hPa 0,0 l/m 0,0 km/h (0 Bft) 0 min
05.02.2017 23:39 22,2 C -1,1 C -0,3 C 87 % 0 % 1005 hPa 0,0 l/m 0,0 km/h (0 Bft) 0 min
05.02.2017 23:42 22,2 C -1,1 C -0,2 C 87 % 0 % 1005 hPa 0,0 l/m 0,0 km/h (0 Bft) 0 min
05.02.2017 23:45 22,2 C -1,2 C -0,3 C 87 % 0 % 1005 hPa 0,0 l/m 0,0 km/h (0 Bft) 0 min
05.02.2017 23:48 22,2 C -1,2 C -0,3 C 87 % 0 % 1005 hPa 0,0 l/m 0,0 km/h (0 Bft) 0 min
05.02.2017 23:51 22,2 C -1,2 C -0,4 C 87 % 0 % 1005 hPa 0,0 l/m 0,0 km/h (0 Bft) 0 min
05.02.2017 23:54 22,2 C -1,2 C -0,3 C 87 % 0 % 1005 hPa 0,0 l/m 0,0 km/h (0 Bft) 0 min
05.02.2017 23:57 22,2 C -1,2 C -0,3 C 87 % 0 % 1005 hPa 0,0 l/m 0,0 km/h (0 Bft) 0 min
_ Min-Zeit 11:39 07:39 08:00 14:15 - 16:54 - 00:00 -
Minimum _ 21,2 C -1,2 C -0,4 C 52 % - 1004 hPa - 0,0 km/h (0 Bft) -
_ Max-Zeit 13:42 14:12 14:12 08:27 12:12 03:30 00:00 13:57 07:51
Maximum _ 22,9 C 8,5 C 5,5 C 94 % 84 % 1009 hPa 0,0 l/m 9,6 km/h
O (2 Bft)
3 min
Durchschnitt _ 22,2 C 2,0 C 1,3 C 82 % #4:51 h 1007 hPa #0,0 l/m 1,6 km/h (1 Bft) #4:51 h